Estación de El Cardal INIA

Ultimos registro cada 15 minutos 73
Estación Fecha / Hora Temperatura Humedad Lluvia Velocidad Dirección Radiación Presion
73 El Cardal INIA 08-05-2026 18:00 9,2 75,6 0 0,1 134 5 1016
72 El Cardal INIA 08-05-2026 17:45 9,8 72,1 0 0,1 197 11 1016
71 El Cardal INIA 08-05-2026 17:30 10,5 69,9 0 0,4 252 19 1015
70 El Cardal INIA 08-05-2026 17:15 11,2 66,4 0 0,2 180 34 1015
69 El Cardal INIA 08-05-2026 17:00 12,2 66,8 0 0 0 125 1015
68 El Cardal INIA 08-05-2026 16:45 12,5 69,3 0 0 0 162 1015
67 El Cardal INIA 08-05-2026 16:30 12,5 69,3 0 0,3 259 199 1014
66 El Cardal INIA 08-05-2026 16:15 12,9 67,5 0 0,1 218 237 1014
65 El Cardal INIA 08-05-2026 16:00 12,9 67,6 0 0 0 274 1014
64 El Cardal INIA 08-05-2026 15:45 12,7 67,5 0 0,1 227 310 1014
63 El Cardal INIA 08-05-2026 15:30 12,9 68,6 0 0 0 345 1014
62 El Cardal INIA 08-05-2026 15:15 12,4 72,5 0 0 0 351 1014
61 El Cardal INIA 08-05-2026 15:00 11,6 72,7 0 0 0 227 1014
60 El Cardal INIA 08-05-2026 14:45 11,4 75,6 0 0,1 228 274 1014
59 El Cardal INIA 08-05-2026 14:30 11,2 76,9 0 0,2 210 335 1013
58 El Cardal INIA 08-05-2026 14:15 10,7 78,7 0 0,3 214 231 1013
57 El Cardal INIA 08-05-2026 14:00 11,2 76,5 0 0,6 254 318 1013
56 El Cardal INIA 08-05-2026 13:45 11 73,7 0 0 226 523 1013
55 El Cardal INIA 08-05-2026 13:30 9,6 81,4 0 0,2 282 292 1014
54 El Cardal INIA 08-05-2026 13:15 9 83,9 0 0,1 269 115 1013
53 El Cardal INIA 08-05-2026 13:00 9 85 0 0,6 251 149 1014
52 El Cardal INIA 08-05-2026 12:45 9,7 84,8 0 0,6 248 174 1014
51 El Cardal INIA 08-05-2026 12:30 9,6 86,6 0 0,7 246 328 1014
50 El Cardal INIA 08-05-2026 12:15 9 86,3 0 0,6 240 325 1013
49 El Cardal INIA 08-05-2026 12:00 8,6 88,9 0 0,2 280 213 1014
48 El Cardal INIA 08-05-2026 11:45 8,2 91,5 0 0,1 204 132 1014
47 El Cardal INIA 08-05-2026 11:30 8,2 93,3 0 0,1 238 169 1013
46 El Cardal INIA 08-05-2026 11:15 8,4 94,5 0 0,3 250 155 1013
45 El Cardal INIA 08-05-2026 11:00 8,4 95,8 0 0 0 161 1013
44 El Cardal INIA 08-05-2026 10:45 8,2 97,4 0 0 0 166 1014
43 El Cardal INIA 08-05-2026 10:30 8 98,5 0 0,1 246 137 1013
42 El Cardal INIA 08-05-2026 10:15 7,8 98,5 0 0 0 120 1013
41 El Cardal INIA 08-05-2026 10:00 7,5 99,8 0 0 0 81 1013
40 El Cardal INIA 08-05-2026 09:45 7,3 98,8 0,1 0 0 79 1013
39 El Cardal INIA 08-05-2026 09:30 7,2 99,2 0,1 0 0 57 1013
38 El Cardal INIA 08-05-2026 09:15 6,9 99,5 0,1 0 0 39 1012
37 El Cardal INIA 08-05-2026 09:00 7 99,3 0 0 0 23 1012
36 El Cardal INIA 08-05-2026 08:45 6,8 99,4 0 0 0 20 1012
35 El Cardal INIA 08-05-2026 08:30 6,7 99,4 0 0 0 19 1011
34 El Cardal INIA 08-05-2026 08:15 6,6 99,2 0 0 0 8 1011
33 El Cardal INIA 08-05-2026 08:00 6,5 99,2 0 0 0 3 1012
32 El Cardal INIA 08-05-2026 07:45 6,5 99,1 0 0 0 1 1011
31 El Cardal INIA 08-05-2026 07:30 6,5 99 0 0 0 0 1011
30 El Cardal INIA 08-05-2026 07:15 6,4 98,8 0,1 0 0 0 1011
29 El Cardal INIA 08-05-2026 07:00 6,4 98,8 0 0 0 0 1011
28 El Cardal INIA 08-05-2026 06:45 6,3 98,7 0,1 0 0 0 1011
27 El Cardal INIA 08-05-2026 06:30 6,3 98,6 0,1 0 0 0 1011
26 El Cardal INIA 08-05-2026 06:15 6,3 98,5 0 0 0 0 1010
25 El Cardal INIA 08-05-2026 06:00 6,3 98,6 0 0 0 0 1010
24 El Cardal INIA 08-05-2026 05:45 6,3 98,6 0,1 0 0 0 1010
23 El Cardal INIA 08-05-2026 05:30 6,4 98,3 0,1 0 0 0 1010
22 El Cardal INIA 08-05-2026 05:15 6,4 98,3 0 0 0 0 1010
21 El Cardal INIA 08-05-2026 05:00 6,4 98 0 0 0 0 1010
20 El Cardal INIA 08-05-2026 04:45 6,4 97,6 0 0 0 0 1010
19 El Cardal INIA 08-05-2026 04:30 6,4 97,5 0 0 0 0 1010
18 El Cardal INIA 08-05-2026 04:15 6,4 97,6 0 0 0 0 1010
17 El Cardal INIA 08-05-2026 04:00 6,4 97,5 0 0 0 0 1010
16 El Cardal INIA 08-05-2026 03:45 6,3 97,6 0,2 0 0 0 1010
15 El Cardal INIA 08-05-2026 03:30 6,3 97,5 0,1 0 0 0 1010
14 El Cardal INIA 08-05-2026 03:15 6,3 97,4 0,6 0 0 0 1010
13 El Cardal INIA 08-05-2026 03:00 6,3 97,2 0,4 0 0 0 1010
12 El Cardal INIA 08-05-2026 02:45 6,3 96,9 0,5 0 0 0 1010
11 El Cardal INIA 08-05-2026 02:30 6,2 96,4 0,3 0,3 65 0 1010
10 El Cardal INIA 08-05-2026 02:15 6,2 96 0,2 0,1 87 0 1010
9 El Cardal INIA 08-05-2026 02:00 6,2 95,8 0,1 0 0 0 1010
8 El Cardal INIA 08-05-2026 01:45 6,2 95,8 0,1 0,6 47 0 1010
7 El Cardal INIA 08-05-2026 01:30 6,2 95,9 0 0,5 42 0 1011
6 El Cardal INIA 08-05-2026 01:15 6,1 95,8 0 0,3 41 0 1011
5 El Cardal INIA 08-05-2026 01:00 6 95,7 0 1,4 54 0 1011
4 El Cardal INIA 08-05-2026 00:45 6 94,5 0 1,1 62 0 1012
3 El Cardal INIA 08-05-2026 00:30 6,1 93,8 0 2,4 55 0 1012
2 El Cardal INIA 08-05-2026 00:15 6,2 92,5 0 2,7 44 0 1012
1 El Cardal INIA 08-05-2026 00:00 6,2 92,9 0 2,7 52 0 1012